Home > Weather > Haan > Past weeks

Flag for Germany Past Weather in Haan, North Rhine-Westphalia, Germany — Yesterday and Last 2 Weeks

Now
61 °F

Clear.


Feels Like: 61 °F
Forecast: 57 / 72 °F
Wind: 9 mph from Northeast

Location: Duesseldorf

Current Time: May 27, 2016 at 2:26:41 AM

Latest Report: May 27, 2016 at 1:50 AM


Visibility: 10 mi

Pressure: 29.95 "Hg

Humidity: 72%

Dew Point: 52 °F

Location of HaanLocation

Past Weather in Haan — Graph

°F

Haan Temperature Yesterday

Maximum temperature yesterday: 73 °F (at 4:50 PM)
Minimum temperature yesterday: 46 °F (at 4:20 AM)
Average temperature yesterday: 61 °F

High & Low Weather Summary for the Past Weeks

 TemperatureHumidityPressure
High77 °F (May 12, 1:20 PM)100% (May 19, 3:50 AM)30.12 "Hg (May 19, 3:50 AM)
Low41 °F (May 15, 5:20 AM)27% (May 13, 4:20 PM)29.47 "Hg (May 12, 1:20 PM)
Average58 °F70%29.90 "Hg
* Reported May 12 1:20 AM — May 27 1:20 AM, Haan, Weather by CustomWeather, © 2016

Note: Actual official high and low records may vary slightly from our data, if they occured in-between our weather recording intervals... More about our weather records

Advertising

Haan Weather History for the Previous 24 Hours

Scroll right to see more
 ConditionsComfort  
Time TempWeatherWind HumidityBarometerVisibility
1:20 AM
Fri, May 27
61 °FClear.9 mph72%29.95 "Hg10 mi
12:50 AM61 °FClear.10 mph68%29.95 "Hg10 mi
12:20 AM63 °FClear.9 mph64%29.98 "Hg10 mi
11:50 PM
Thu, May 26
63 °FClear.8 mph64%29.98 "Hg10 mi
11:20 PM63 °FClear.8 mph64%29.98 "Hg10 mi
10:50 PM63 °FClear.8 mph64%29.98 "Hg10 mi
10:20 PM63 °FSunny.7 mph64%29.98 "Hg10 mi
9:50 PM64 °FSunny.6 mph60%29.98 "Hg10 mi
9:20 PM64 °FSunny.7 mph60%29.98 "Hg10 mi
8:50 PM66 °FSunny.6 mph56%29.98 "Hg10 mi
8:20 PM68 °FSunny.6 mph53%29.95 "Hg10 mi
7:50 PM70 °FSunny.6 mph50%29.95 "Hg10 mi
7:20 PM70 °FPassing clouds.5 mph46%29.95 "HgN/A
6:50 PM72 °FSunny.3 mph44%29.95 "Hg10 mi
6:20 PM72 °FPassing clouds.3 mph44%29.98 "HgN/A
5:50 PM72 °FPassing clouds.3 mph41%29.98 "HgN/A
5:20 PM72 °FPassing clouds.5 mph41%29.98 "HgN/A
4:50 PM73 °FPassing clouds.5 mph38%29.98 "HgN/A
4:20 PM72 °FPassing clouds.7 mph41%29.98 "HgN/A
3:50 PM72 °FSunny.5 mph41%29.98 "Hg10 mi
3:20 PM72 °FPassing clouds.6 mph44%30.01 "HgN/A
2:50 PM72 °FPassing clouds.6 mph44%30.01 "HgN/A
2:20 PM70 °FPassing clouds.8 mph46%30.01 "HgN/A
1:50 PM70 °FSunny.2 mph46%30.01 "Hg10 mi
1:20 PM68 °FSunny.6 mph46%30.01 "Hg10 mi
12:50 PM70 °FScattered clouds.6 mph50%30.01 "HgN/A
12:20 PM66 °FPartly sunny.3 mph52%30.01 "HgN/A
11:50 AM66 °FPartly sunny.2 mph56%30.01 "HgN/A
11:20 AM64 °FScattered clouds.5 mph60%30.01 "HgN/A
10:50 AM64 °FPassing clouds.3 mph64%30.01 "HgN/A
10:20 AM63 °FPassing clouds.3 mph68%30.01 "HgN/A
9:50 AM63 °FPassing clouds.2 mph68%30.04 "HgN/A
9:20 AM61 °FSunny.5 mph72%30.04 "Hg10 mi
8:50 AM59 °FPassing clouds.6 mph77%30.04 "HgN/A
8:20 AM57 °FScattered clouds.3 mph82%30.01 "HgN/A
7:50 AM55 °FScattered clouds.3 mph88%30.01 "HgN/A
7:20 AM54 °FPartly sunny.2 mph94%30.01 "HgN/A
6:50 AM52 °FBroken clouds.2 mph94%30.01 "HgN/A
6:20 AM50 °FClear.5 mph100%30.01 "Hg10 mi
5:50 AM48 °FFog.3 mph94%30.01 "HgN/A
5:20 AM46 °FFog.2 mph100%30.01 "HgN/A
4:50 AM46 °FFog.3 mph93%30.01 "HgN/A
4:20 AM46 °FFog.2 mph100%30.01 "HgN/A
3:50 AM48 °FFog.2 mph100%30.01 "HgN/A
3:20 AM48 °FFog.3 mph94%30.01 "HgN/A
2:50 AM50 °FFog.2 mph94%30.01 "HgN/A
2:20 AM52 °FClear.3 mph94%30.01 "Hg10 mi
Weather by CustomWeather, © 2016

See weather overviewHow to use our weather pages